Flag for U.S.A. Weather past 2 weeks in Manassas, Virginia, U.S.A.

Now
34 °F

Passing clouds.


Feels Like: 25 °F
Forecast: 29 / 41 °F
Wind: 13 mph from Northwest

Location: Manassas Municipal

Current Time: Dec 18, 2014 at 9:12:16 AM

Latest Report: Dec 18, 2014 at 6:45 AM


Visibility: 10 mi

Pressure: 30.16 "Hg

Humidity: 60%

Dew point: 21 °F

Location of ManassasLocation

Historic Weather in Manassas — Graph

°F

Manassas temperature yesterday

Maximum temperature yesterday: 54 °F (at 12:55 PM)
Minimum temperature yesterday: 34 °F (at 11:35 PM)
Average temperature yesterday: 40 °F

Past Weeks' High & Low Weather Summary

 TemperatureHumidityPressure
High140 °F (Dec 9, 2:45 PM)100% (Dec 3, 6:15 AM)30.59 "Hg (Dec 3, 6:15 AM)
Low23 °F (Dec 13, 6:35 AM)4% (Dec 9, 2:45 PM)29.83 "Hg (Dec 10, 2:15 PM)
Average40 °F77%30.14 "Hg
* Reported Dec 3 6:15 AM — Dec 18 6:45 AM, Manassas, Weather by CustomWeather, © 2014

Note: Actual official high and low records may vary slightly from our data, if they occured in-between our weather recording intervals... More about our weather records

Advertising

Manassas weather history for previous 24 hours

 ConditionsComfort  
Time TempWeatherWind HumidityBarometerVisibility
6:45 AM
Dec 18
34 °FPassing clouds.13 mph60%30.16 "Hg10 mi
6:15 AM36 °FOvercast.10 mph60%30.15 "Hg10 mi
5:55 AM36 °FOvercast.8 mph60%30.14 "Hg10 mi
5:35 AM34 °FPassing clouds.3 mph65%30.14 "Hg10 mi
5:15 AM34 °FPassing clouds.12 mph65%30.12 "Hg10 mi
4:55 AM34 °FPassing clouds.6 mph60%30.12 "Hg10 mi
4:35 AM34 °FPassing clouds.8 mph60%30.12 "Hg10 mi
3:55 AM36 °FPassing clouds.13 mph56%30.12 "Hg10 mi
3:35 AM36 °FPassing clouds.16 mph56%30.11 "Hg10 mi
3:15 AM36 °FClear.15 mph56%30.11 "Hg10 mi
2:55 AM36 °FClear.13 mph56%30.11 "Hg10 mi
2:35 AM36 °FClear.12 mph56%30.11 "Hg10 mi
2:15 AM36 °FPassing clouds.14 mph60%30.10 "Hg10 mi
1:55 AM37 °FPassing clouds.9 mph60%30.10 "Hg10 mi
1:35 AM36 °FPassing clouds.8 mph65%30.10 "Hg10 mi
1:15 AM37 °FOvercast.9 mph60%30.10 "Hg10 mi
12:55 AM36 °FOvercast.6 mph70%30.10 "Hg10 mi
12:35 AM34 °FPassing clouds.6 mph75%30.10 "Hg10 mi
12:15 AM36 °FClear.6 mph70%30.09 "Hg10 mi
11:55 PM
Dec 17
36 °FClear.7 mph70%30.08 "Hg10 mi
11:35 PM34 °FClear.6 mph75%30.08 "Hg10 mi
11:15 PM36 °FClear.7 mph70%30.08 "Hg10 mi
10:35 PM37 °FClear.14 mph70%30.06 "Hg10 mi
10:15 PM37 °FClear.14 mph65%30.06 "Hg10 mi
9:55 PM37 °FClear.12 mph65%30.05 "Hg10 mi
9:35 PM37 °FClear.8 mph65%30.06 "Hg10 mi
9:15 PM37 °FClear.7 mph65%30.05 "Hg10 mi
8:55 PM37 °FClear.8 mph65%30.06 "Hg10 mi
8:35 PM37 °FClear.9 mph70%30.06 "Hg10 mi
8:15 PM39 °FClear.12 mph65%30.05 "Hg10 mi
7:55 PM39 °FClear.10 mph65%30.05 "Hg10 mi
6:50 PM41 °FClear.8 mph61%30.03 "Hg10 mi
5:45 PM43 °FClear.9 mph57%30.01 "Hg10 mi
4:45 PM46 °FSunny.8 mph57%30.00 "Hg10 mi
2:55 PM52 °FPartly sunny.8 mph54%29.98 "Hg10 mi
1:45 PM54 °FMostly cloudy.8 mph54%29.97 "Hg10 mi
12:55 PM54 °FPartly sunny.8 mph58%29.99 "Hg10 mi
11:45 AM48 °FMostly cloudy.No wind94%30.00 "Hg10 mi
10:45 AM43 °FOvercast.No wind100%30.03 "Hg10 mi
9:45 AM39 °FOvercast.No wind100%30.03 "Hg10 mi
Weather by CustomWeather, © 2014

See weather overviewHow to use our weather pages